[[{"header":{"parameterUnit":"m.s-1","parameterCategory":1,"la1":30.2991,"la2":30.254,"lo1":-89.0895,"lo2":-89.0444,"dy":0.0017,"dx":0.0017,"nx":28,"ny":28,"refTime":"2023-10-21T03:00:00:Z","depth":0,"parameterNumber":2,"parameterNumberName":"U-component_of_WINDS"},"data":[0,0,0,0,0,0,0,0,0,0,0,0,0,0,0,0,0,0,0,0,0,0,0,0,0,0,0,0,0,0,0,0,0,0,0,0,0,0,0,0,0,0,0,0,0,0,0,0,0,0,0,0,0,0,0,0,0,0,-1.1186,-1.1185,0,-1.112,-1.1119,-1.1119,-1.1038,-1.1037,-1.1036,-1.1035,-1.0967,-1.0967,-1.0966,0,0,0,0,0,0,0,0,0,0,0,0,0,-1.1243,-1.1243,-1.1186,-1.1185,-1.1184,-1.112,-1.1119,-1.1119,-1.1039,-1.1037,-1.1036,-1.1034,-1.0967,-1.0967,-1.0966,0,0,0,0,0,0,0,0,0,0,0,0,0,-1.1202,-1.1242,-1.1186,-1.1137,-1.1132,-1.1121,-1.1119,-1.1118,-1.1039,-1.1037,-1.1035,-1.1033,-1.0968,-1.0967,-1.0966,-1.0998,0,0,-1.0963,-1.0962,0,0,0,0,0,0,0,0,-1.1205,-1.12,-1.1145,-1.114,-1.1134,-1.1086,-1.1115,-1.1078,-1.1039,-1.1074,-1.1035,-1.1032,-1.1008,-1.1004,-1.0995,-1.0995,-1.0992,-1.0963,-1.0962,-1.0962,-1.0962,0,0,0,0,0,0,0,-1.1207,-1.1202,-1.116,-1.1144,-1.1138,-1.1118,-1.111,-1.1107,-1.1052,-1.1071,-1.1065,-1.1058,-1.1005,-1.0997,-1.0993,-1.0991,-1.0963,-1.0962,-1.0961,-1.0961,-1.1015,-1.1017,0,0,0,0,0,0,-1.1218,-1.1205,-1.1162,-1.1158,-1.1165,-1.1119,-1.111,-1.1103,-1.1052,-1.1043,-1.106,-1.1055,-1.0999,-1.0994,-1.0991,-1.1025,-1.0962,-1.0961,-1.096,-1.1013,-1.1015,-1.1017,0,0,0,0,0,0,-1.1219,-1.1215,-1.1164,-1.118,-1.1172,-1.112,-1.1113,-1.1103,-1.1094,-1.1044,-1.1034,-1.1062,-1.0997,-1.0992,-1.0997,-1.1022,-1.0961,-1.096,-1.101,-1.1013,-1.1016,-1.1095,0,0,0,0,0,0,-1.1221,-1.1216,-1.1227,-1.1181,-1.1172,-1.1172,-1.1114,-1.1103,-1.1093,-1.1086,-1.1043,-1.1034,-1.0996,-1.0999,-1.0996,-1.1019,-1.0959,-1.1008,-1.1012,-1.1015,-1.109,-1.11,-1.1109,0,0,0,0,0,-1.1224,-1.1251,-1.1228,-1.1223,-1.1184,-1.1173,-1.1168,-1.1123,-1.1095,-1.1106,-1.1075,-1.1035,-1.102,-1.1,-1.0996,-1.102,-1.1006,-1.1011,-1.1015,-1.1085,-1.1098,-1.1109,0,0,0,0,0,0,-1.13,-1.1244,-1.1217,-1.1231,-1.1208,-1.116,-1.1172,-1.1138,-1.1122,-1.1116,-1.1061,-1.1052,-1.1064,-1.1043,-1.1021,-1.1049,-1.1007,-1.1011,-1.1062,-1.1074,-1.1083,-1.1088,-1.0958,0,0,0,0,0,-1.1319,-1.1315,-1.1266,-1.1282,-1.1272,-1.1225,-1.1218,-1.1186,-1.116,-1.1149,-1.1117,-1.1094,-1.1083,-1.1078,-1.1065,-1.1087,-1.1077,-1.1102,-1.1111,-1.1119,-1.1123,-1.1134,-1.1145,-1.1032,-1.1032,-1.1032,0,0,-1.1357,-1.1326,-1.1326,-1.1297,-1.1275,-1.1272,-1.1217,-1.1215,-1.1213,-1.1149,-1.1152,-1.1128,-1.1098,-1.1112,-1.1116,-1.1094,-1.1152,-1.1125,-1.1132,-1.1131,-1.114,-1.115,-1.116,-1.1035,-1.1034,-1.1034,0,0,-1.1425,-1.1401,-1.1412,-1.1392,-1.136,-1.1329,-1.1332,-1.129,-1.1272,-1.1274,-1.1227,-1.1224,-1.1207,-1.1188,-1.1176,-1.124,-1.1203,-1.1238,-1.1287,-1.1299,-1.1307,-1.1315,-1.1338,-1.1347,-1.1242,-1.1242,-1.1242,0,-1.1476,-1.1469,-1.1423,-1.1425,-1.1414,-1.1357,-1.1369,-1.1352,-1.1318,-1.1312,-1.1288,-1.1267,-1.1243,-1.1252,-1.1268,-1.126,-1.1262,-1.1241,-1.131,-1.1317,-1.1323,-1.1345,-1.1354,-1.1246,-1.1246,-1.1245,-1.1245,0,-1.1534,-1.1531,-1.1544,-1.1513,-1.1504,-1.1511,-1.1466,-1.1463,-1.1433,-1.1404,-1.1408,-1.1378,-1.1359,-1.1359,-1.1329,-1.1365,-1.1352,-1.132,-1.1277,-1.1339,-1.1358,-1.1366,-1.1252,-1.1251,-1.125,-1.1248,0,0,-1.1645,-1.1591,-1.1596,-1.1582,-1.1545,-1.1541,-1.1547,-1.1529,-1.1527,-1.1507,-1.151,-1.1499,-1.147,-1.1456,-1.1424,-1.1435,-1.1488,-1.1401,-1.14,-1.1418,-1.1526,-1.155,-1.156,-1.1465,-1.1466,-1.1467,-1.1529,0,-1.1706,-1.1711,-1.1671,-1.1687,-1.1684,-1.1632,-1.1637,-1.1615,-1.1589,-1.1583,-1.1555,-1.1548,-1.151,-1.1502,-1.151,-1.148,-1.1509,-1.1475,-1.1467,-1.1468,-1.1475,-1.157,-1.1594,-1.1654,-1.1536,-1.1537,-1.1538,0,-1.1776,-1.176,-1.1777,-1.174,-1.1737,-1.1742,-1.1723,-1.1718,-1.1693,-1.1673,-1.166,-1.1624,-1.1628,-1.1589,-1.1593,-1.1571,-1.1566,-1.1552,-1.1553,-1.1549,-1.1506,-1.1568,-1.1671,-1.168,-1.1549,-1.1548,-1.1547,0,-1.1856,-1.1838,-1.1846,-1.1836,-1.1793,-1.1798,-1.1781,-1.1753,-1.1746,-1.173,-1.1725,-1.171,-1.1702,-1.1692,-1.1653,-1.1627,-1.1663,-1.1619,-1.1647,-1.1648,-1.1655,-1.1655,-1.1758,-1.1654,-1.1654,-1.1653,-1.1653,0,-1.1926,-1.1938,-1.1882,-1.1886,-1.1899,-1.1854,-1.1868,-1.1845,-1.1822,-1.1822,-1.1776,-1.1778,-1.1727,-1.1723,-1.1693,-1.1702,-1.1698,-1.1683,-1.1675,-1.1687,-1.1689,-1.1682,-1.1676,-1.1656,-1.1655,-1.1655,-1.1654,0,-1.2016,-1.1979,-1.1984,-1.1944,-1.1934,-1.1945,-1.1911,-1.1914,-1.1887,-1.1888,-1.1886,-1.1843,-1.1836,-1.1797,-1.1781,-1.1761,-1.1781,-1.1764,-1.1789,-1.1784,-1.1813,-1.1811,-1.1914,-1.1926,-1.1815,-1.1816,-1.1817,0,-1.2063,-1.2072,-1.2033,-1.203,-1.2015,-1.201,-1.2003,-1.1959,-1.1954,-1.1927,-1.1934,-1.1924,-1.1913,-1.1904,-1.1872,-1.186,-1.1843,-1.188,-1.1841,-1.1853,-1.1843,-1.1843,-1.1844,-1.1888,-1.189,-1.1891,-1.1892,0,-1.2151,-1.2132,-1.2123,-1.2109,-1.2102,-1.2088,-1.2072,-1.2072,-1.2024,-1.202,-1.2013,-1.2005,-1.1989,-1.198,-1.1963,-1.1945,-1.1911,-1.1905,-1.1911,-1.1922,-1.1936,-1.1929,-1.1811,-1.1902,-1.1901,-1.19,-1.19,-1.1899,-1.222,-1.2226,-1.22,-1.2192,-1.2175,-1.2162,-1.2163,-1.2137,-1.213,-1.2114,-1.209,-1.2086,-1.2063,-1.2036,-1.2022,-1.2019,-1.1999,-1.2007,-1.2009,-1.2012,-1.2018,-1.1938,-1.2016,-1.2016,-1.2015,-1.2015,-1.2015,0,-1.2305,-1.2287,-1.228,-1.2259,-1.2253,-1.2223,-1.2204,-1.2201,-1.2199,-1.218,-1.2171,-1.2163,-1.2155,-1.2123,-1.2111,-1.2115,-1.2099,-1.2114,-1.2112,-1.2109,-1.2036,-1.2033,-1.2127,-1.2127,-1.2127,-1.2127,-1.2127,-1.2127,-1.2348,-1.2356,-1.2336,-1.2336,-1.2317,-1.2313,-1.2305,-1.2293,-1.2278,-1.2271,-1.2264,-1.2244,-1.222,-1.2207,-1.2198,-1.2189,-1.2187,-1.2206,-1.2192,-1.2125,-1.2114,-1.2104,-1.21,-1.2206,-1.2207,-1.2265,-1.2265,-1.2266]},{"header":{"parameterUnit":"m.s-1","parameterCategory":1,"la1":30.2991,"la2":30.254,"lo1":-89.0895,"lo2":-89.0444,"dy":0.0017,"dx":0.0017,"nx":28,"ny":28,"refTime":"2023-10-21T03:00:00:Z","depth":0,"parameterNumber":3,"parameterNumberName":"V-component_of_WINDS"},"data":[0,0,0,0,0,0,0,0,0,0,0,0,0,0,0,0,0,0,0,0,0,0,0,0,0,0,0,0,0,0,0,0,0,0,0,0,0,0,0,0,0,0,0,0,0,0,0,0,0,0,0,0,0,0,0,0,0,0,2.7634,2.7634,0,2.7647,2.7647,2.7647,2.7711,2.7713,2.7714,2.7716,2.7722,2.7721,2.772,0,0,0,0,0,0,0,0,0,0,0,0,0,2.7659,2.7659,2.7634,2.7634,2.7634,2.7647,2.7647,2.7647,2.7711,2.7713,2.7715,2.7716,2.7723,2.7721,2.772,0,0,0,0,0,0,0,0,0,0,0,0,0,2.7658,2.7658,2.7634,2.7668,2.7671,2.7647,2.7647,2.7647,2.7711,2.7713,2.7715,2.7717,2.7723,2.7721,2.772,2.7662,0,0,2.7714,2.7713,0,0,0,0,0,0,0,0,2.7658,2.7657,2.7663,2.7665,2.7669,2.768,2.7659,2.7652,2.771,2.7695,2.7716,2.7718,2.7706,2.7706,2.7703,2.7662,2.7663,2.7714,2.7713,2.7712,2.7711,0,0,0,0,0,0,0,2.7658,2.7656,2.7639,2.7663,2.7666,2.7681,2.7683,2.7658,2.7687,2.7697,2.7702,2.7703,2.7708,2.7705,2.7703,2.7663,2.7714,2.7712,2.7711,2.771,2.7577,2.7575,0,0,0,0,0,0,2.7654,2.7656,2.7639,2.7639,2.7669,2.7678,2.7681,2.7674,2.7688,2.7692,2.7701,2.7705,2.7707,2.7706,2.7704,2.7638,2.7712,2.771,2.7709,2.7579,2.7576,2.7574,0,0,0,0,0,0,2.7654,2.7652,2.7638,2.7649,2.7649,2.7676,2.7667,2.7673,2.767,2.7691,2.7696,2.7692,2.7708,2.7707,2.7673,2.7639,2.7709,2.7707,2.7582,2.7578,2.7575,2.7506,0,0,0,0,0,0,2.7655,2.7651,2.7631,2.7648,2.7648,2.7608,2.7665,2.7672,2.7667,2.7674,2.7684,2.7688,2.771,2.7675,2.7671,2.7638,2.7706,2.7585,2.758,2.7576,2.7511,2.75,2.7491,0,0,0,0,0,2.7655,2.7609,2.7629,2.7627,2.7623,2.7606,2.7605,2.7634,2.7664,2.7643,2.7657,2.7687,2.7644,2.7671,2.7667,2.7633,2.7587,2.7582,2.7577,2.7516,2.7502,2.7491,0,0,0,0,0,0,2.7584,2.7612,2.7635,2.7593,2.7597,2.7617,2.7591,2.7619,2.7612,2.7618,2.7652,2.7654,2.7615,2.7621,2.765,2.7579,2.7621,2.7614,2.7576,2.7564,2.7554,2.7553,2.7704,0,0,0,0,0,2.7564,2.755,2.7574,2.7535,2.7536,2.7563,2.7557,2.7579,2.7583,2.7584,2.7596,2.7597,2.7584,2.7574,2.7563,2.7513,2.7516,2.7487,2.7477,2.7469,2.7462,2.7437,2.7425,2.7556,2.7556,2.7556,0,0,2.7521,2.7535,2.7523,2.7521,2.7527,2.751,2.7564,2.7543,2.7531,2.758,2.755,2.7558,2.7562,2.752,2.7502,2.7524,2.7427,2.7462,2.7455,2.7453,2.743,2.7417,2.7406,2.7552,2.7553,2.7554,0,0,2.7435,2.7444,2.7413,2.7419,2.7428,2.7446,2.7439,2.7455,2.7463,2.7434,2.7471,2.7456,2.7432,2.7434,2.7432,2.7349,2.7376,2.7344,2.729,2.7265,2.7255,2.7246,2.7216,2.7205,2.7338,2.7337,2.7337,0,2.738,2.7359,2.7393,2.7371,2.7369,2.7416,2.7385,2.7387,2.7391,2.7387,2.7412,2.7385,2.7391,2.7351,2.7331,2.7327,2.7319,2.7342,2.7254,2.7245,2.7237,2.7209,2.7198,2.7333,2.7334,2.7334,2.7335,0,2.7291,2.7275,2.7249,2.7254,2.7249,2.7222,2.7251,2.7242,2.7265,2.728,2.725,2.7259,2.7251,2.7243,2.7264,2.7206,2.7219,2.7248,2.7291,2.722,2.7195,2.7184,2.7328,2.7329,2.733,2.7331,0,0,2.7158,2.7186,2.7175,2.7179,2.7193,2.7181,2.7156,2.7151,2.7142,2.7143,2.7122,2.7103,2.7131,2.7128,2.715,2.7128,2.7062,2.716,2.7161,2.7141,2.6998,2.6976,2.6963,2.7081,2.7079,2.7078,2.6998,0,2.7076,2.7037,2.7069,2.7023,2.7009,2.7055,2.7033,2.7039,2.7053,2.7042,2.7057,2.7043,2.7081,2.708,2.706,2.7074,2.7033,2.708,2.7061,2.706,2.7058,2.695,2.6926,2.685,2.6988,2.6987,2.6985,0,2.6975,2.6975,2.6929,2.6948,2.6943,2.6923,2.6922,2.6911,2.6918,2.693,2.6928,2.6956,2.6932,2.6976,2.6942,2.6974,2.6968,2.6974,2.6971,2.697,2.7018,2.6945,2.6826,2.6815,2.697,2.6971,2.6972,0,2.6883,2.6871,2.6842,2.6844,2.6865,2.685,2.6858,2.6868,2.6863,2.6862,2.6859,2.6854,2.685,2.6845,2.687,2.69,2.6834,2.6879,2.6842,2.6841,2.6825,2.6826,2.6703,2.6822,2.6822,2.6822,2.6822,0,2.6788,2.6757,2.6802,2.6784,2.6752,2.6788,2.6754,2.6766,2.6775,2.676,2.6798,2.6782,2.6818,2.6805,2.6825,2.6794,2.6792,2.6801,2.6806,2.6797,2.6796,2.6793,2.6798,2.6819,2.682,2.6821,2.6821,0,2.6679,2.6708,2.6679,2.6703,2.6708,2.6683,2.6703,2.6686,2.6705,2.6684,2.6682,2.6709,2.6697,2.6722,2.6712,2.6726,2.6683,2.6697,2.6681,2.6685,2.6647,2.665,2.6518,2.6502,2.6631,2.6629,2.6628,0,2.6616,2.6595,2.6617,2.661,2.6617,2.6606,2.6602,2.6637,2.6631,2.6639,2.6622,2.6613,2.6608,2.6586,2.6604,2.6597,2.6611,2.6565,2.6609,2.6602,2.661,2.6611,2.6609,2.6555,2.6554,2.6552,2.6551,0,2.6501,2.6517,2.6512,2.6512,2.6507,2.6508,2.6511,2.6503,2.654,2.6532,2.6521,2.6518,2.651,2.65,2.6498,2.6504,2.6533,2.6538,2.6529,2.6519,2.6511,2.6515,2.6656,2.654,2.6541,2.6542,2.6543,2.6543,2.6414,2.6397,2.6411,2.6404,2.6411,2.6414,2.64,2.6418,2.641,2.6408,2.6428,2.6413,2.6422,2.6422,2.6426,2.6413,2.6434,2.6421,2.6417,2.6413,2.6407,2.6513,2.6413,2.6413,2.6414,2.6414,2.6414,0,2.6301,2.6313,2.6306,2.6311,2.6306,2.6337,2.6343,2.6335,2.6322,2.6329,2.6324,2.6312,2.6304,2.6322,2.6316,2.6303,2.6316,2.63,2.6301,2.6302,2.6389,2.6398,2.629,2.629,2.629,2.629,2.629,2.629,2.6242,2.6216,2.6234,2.6211,2.6223,2.621,2.6211,2.6213,2.6219,2.6205,2.6199,2.6212,2.6224,2.6219,2.6213,2.6219,2.6214,2.6194,2.6203,2.6284,2.6296,2.6308,2.6316,2.6192,2.6192,2.6118,2.6117,2.6117]}]]